sat.trackr.live / text

‹ back to catalog

GHGSAT-C8

NORAD 56186 · 2023-054J

PAYLOAD ACTIVE UNKNOWN

§ Identity

Operator
Country
CA
Launch date
2023-04-15
Launch site
AFWTR
Launch vehicle
Mass (kg)
RCS (m²)

External: N2YO · Heavens-Above · Gunter

§ Orbital elements

Epoch: 2026-09-21T23:42:48.067776Z

Period
92.57 min
Inclination
97.2891°
Eccentricity
0.0006297
Mean motion
15.55608493 rev/d
Perigee alt
396.1 km
Apogee alt
404.7 km
Semi-major
6,778.5 km
B*
1.8566e-4
RAAN
175.9982°
Arg perigee
79.3712°
Mean anomaly
280.8252°
Rev number
19,347

§ Raw data

GHGSAT-C81 56186U 23054J   26264.98805634  .00012638  00000+0  18566-3 0  99912 56186  97.2891 175.9982 0006297  79.3712 280.8252 15.55608493193475

JSON: /api/v1/satellites/56186 · /tle

For live sub-satellite position, see the globe view (requires WebGL).

§ Visibility from observer

Set your observer location to see the next 7 days of passes ≥ 10°. The values pass through the URL so the page stays shareable.

No JS? Fill the form by hand. The geolocation button needs JavaScript.